This is the latest recevied weather packets stored in our database for station/object KD4WLE. If no packets are shown the sender has not sent any weather packets the latest 10 day(s).
| Time | Temp. | Humidity | Pressure | Rain* | Wind** | Luminosity | Snow |
|---|---|---|---|---|---|---|---|
| 1777820468 | 22.22° C | 78% | 1018.4 hPa | 0 mm | - | 390 W/m² | - |
| 1777820165 | 21.67° C | 80% | 1018.8 hPa | 0 mm | - | 371 W/m² | - |
| 1777819863 | 21.67° C | 80% | 1018.8 hPa | 0 mm | - | 159 W/m² | - |
| 1777819560 | 21.67° C | 80% | 1018.8 hPa | 0 mm | - | 181 W/m² | - |
| 1777819257 | 21.67° C | 81% | 1018.7 hPa | 0 mm | - | 223 W/m² | - |
| 1777818954 | 21.67° C | 80% | 1018.6 hPa | 0 mm | - | 223 W/m² | - |
| 1777818650 | 21.67° C | 80% | 1018.4 hPa | 0 mm | - | 270 W/m² | - |
| 1777818348 | 21.67° C | 80% | 1018.3 hPa | 0 mm | - | 298 W/m² | - |
| 1777818044 | 21.67° C | 81% | 1018.2 hPa | 0 mm | - | 298 W/m² | - |
| 1777817741 | 21.67° C | 81% | 1018.2 hPa | 0 mm | - | 350 W/m² | - |
| 1777817438 | 21.11° C | 82% | 1018.2 hPa | 0 mm | - | 254 W/m² | - |
| 1777817134 | 21.11° C | 84% | 1018.1 hPa | 0 mm | - | 242 W/m² | - |
| 1777816832 | 21.11° C | 83% | 1018.2 hPa | 0 mm | - | 158 W/m² | - |
| 1777816529 | 21.11° C | 82% | 1018.1 hPa | 0 mm | - | 161 W/m² | - |
| 1777816226 | 21.11° C | 82% | 1017.9 hPa | 0 mm | - | 247 W/m² | - |
| 1777815923 | 21.11° C | 83% | 1017.9 hPa | 0 mm | - | 168 W/m² | - |
| 1777815621 | 21.11° C | 85% | 1017.8 hPa | 0 mm | - | 189 W/m² | - |
| 1777815318 | 21.11° C | 85% | 1017.8 hPa | 0 mm | - | 126 W/m² | - |
| 1777815015 | 21.11° C | 85% | 1017.7 hPa | 0 mm | - | 126 W/m² | - |
| 1777814711 | 20.56° C | 84% | 1017.7 hPa | 0 mm | - | 105 W/m² | - |
| 1777814408 | 20.56° C | 84% | 1017.5 hPa | 0 mm | - | 116 W/m² | - |
| 1777814105 | 20.56° C | 84% | 1017.4 hPa | 0 mm | - | 102 W/m² | - |
| 1777813801 | 20.56° C | 85% | 1017.6 hPa | 0 mm | - | 111 W/m² | - |
| 1777813499 | 20.56° C | 87% | 1017.4 hPa | 0 mm | - | 105 W/m² | - |
| 1777813196 | 20° C | 89% | 1017.5 hPa | 0 mm | - | 92 W/m² | - |
* Rain latest hour (hover to see other rain measurements)
** Current wind speed in m/s (hover to see current wind gust speed)